User: anonymous   Login
Location: Unspecified
(0.0000°N, 0.0000°E)
Time: 17:09:53
(UTC+00:00)
Language:

USA 176 - Orbit

View from above orbital plane
View from above orbital plane
View from above satellite
View from above satellite

Ground track
Ground track

The orbit data is extracted from the following two-line orbital elements,

1 28158U 04004A   15099.41160702 0.00000000  00000-0  00000-0 0    00
2 28158   6.4730  51.7942 0008121 221.2563 138.6925  1.00270000    01
Epoch (UTC): 09 April 2015 09:52:42
Eccentricity: 0.0008121
inclination: 6.4730°
perigee height: 35752 km
apogee height: 35821 km
right ascension of ascending node: 51.7942°
argument of perigee: 221.2563°
revolutions per day: 1.00270000
mean anomaly at epoch: 138.6925°
orbit number at epoch: 0

The dashed part of the orbit path shows where the satellite is in the earth's shadow,  

DLR